Effective Sunday, March 17, 2024, the National Weather Service National Data Buoy Center will discontinue its Dial-A-Buoy Interactive Voice Response system. For more information, see Service Change Notice 24-06 (PDF).

Station HHLO1 - Huron Harbor Light, OH Image indicating link to RSS feed of recent meteorological observations for station HHLO1


Conditions at HHLO1 as of
(12:00 am EST)
0500 GMT on 03/01/2024:
     

Click on the graph icon in the table below to see a time series plot of the last five days of that observation.

5-day plot - Wind Direction Wind Direction (WDIR):SSW ( 210 deg true )
5-day plot - Wind Speed Wind Speed (WSPD): 7.0 kts
5-day plot - Wind Gust Wind Gust (GST): 9.9 kts
5-day plot - Atmospheric Pressure Atmospheric Pressure (PRES):30.31 in
5-day plot - Pressure Tendency Pressure Tendency (PTDY):-0.04 in ( Falling )
5-day plot - Air Temperature Air Temperature (ATMP): 33.1 °F
5-day plot - Wind Chill Wind Chill (CHILL): 26.1 °F
5-day plot - Wind Speed at 10 Meters Wind Speed at 10 meters (WSPD10M): 7.8 kts
5-day plot - Wind Speed at 20 Meters Wind Speed at 20 meters (WSPD20M): 7.8 kts
5-day plot -  Wind Speed, Wind Gust and Atmospheric Pressure Combined plot of Wind Speed, Gust, and Air Pressure
Previous observations
TIME
(EST)
5-day plot - Wind Direction
WDIR
 
5-day plot - Wind Speed
WSPD
kts
5-day plot - Wind Gust
GST
kts
5-day plot - Wave Height
WVHT
ft
5-day plot - Dominant Wave Period
DPD
sec
5-day plot - Average Wave Period
APD
sec
5-day plot - Mean Wave Direction
MWD
 
5-day plot - Atmospheric Pressure
PRES
in
5-day plot - Pressure Tendency
PTDY
in
5-day plot - Air Temperature
ATMP
°F
5-day plot - Water Temperature
WTMP
°F
5-day plot - Dew Point
DEWP
°F
5-day plot - Salinity
SAL
psu
5-day plot - Visibility
VIS
nmi
5-day plot - Tide (above MLLW)
TIDE
ft
2024-02-29 11:50 pmSSW 7.0 8.9----30.31- 33.1-----
2024-02-29 11:40 pmSSW 6.0 8.9----30.31- 32.9-----
2024-02-29 11:30 pmSSW 7.0 9.9----30.32- 32.7-----
2024-02-29 11:20 pmSSW 7.0 9.9----30.31- 32.7-----
2024-02-29 11:10 pmSSW 7.0 11.1----30.32- 32.5-----
2024-02-29 11:00 pmSSW 7.0 8.9----30.32-0.04 32.5-----
2024-02-29 10:50 pmSSW 6.0 9.9----30.32- 32.5-----
2024-02-29 10:40 pmSSW 6.0 8.0----30.33- 32.4-----
2024-02-29 10:30 pmSSW 6.0 8.0----30.33- 32.2-----
2024-02-29 10:20 pmSSW 5.1 8.0----30.33- 32.4-----
2024-02-29 10:10 pmSSW 6.0 8.0----30.34- 32.4-----
2024-02-29 10:00 pmSSW 6.0 8.0----30.34-0.02 32.4-----
2024-02-29 09:50 pmSSW 6.0 7.0----30.34- 32.2-----
2024-02-29 09:40 pmSSW 6.0 7.0----30.35- 32.2-----
2024-02-29 09:30 pmSSW 6.0 7.0----30.35- 32.2-----
2024-02-29 09:20 pmSSW 4.1 6.0----30.35- 32.0-----
2024-02-29 09:10 pmSSW 4.1 5.1----30.35- 32.2-----
2024-02-29 09:00 pmSSW 2.9 5.1----30.35+0.00 32.0-----
2024-02-29 08:50 pmSSW 2.9 4.1----30.35- 32.4-----
2024-02-29 08:40 pmSSW 2.9 5.1----30.36- 32.7-----
2024-02-29 08:30 pmSSW 2.9 4.1----30.36- 32.7-----
2024-02-29 08:20 pmSSW 4.1 5.1----30.36- 33.1-----
2024-02-29 08:10 pm SW 4.1 6.0----30.37- 33.6-----
2024-02-29 08:00 pmWSW 4.1 6.0----30.36+0.00 33.8-----
2024-02-29 07:50 pmWSW 4.1 6.0----30.37- 34.2-----
2024-02-29 07:40 pmWSW 5.1 6.0----30.37- 34.5-----
2024-02-29 07:30 pmWSW 5.1 6.0----30.36- 34.7-----
2024-02-29 07:20 pm SW 5.1 6.0----30.36- 34.9-----
2024-02-29 07:10 pm SW 5.1 7.0----30.36- 34.9-----
2024-02-29 07:00 pm SW 6.0 8.0----30.36+0.00 34.9-----
2024-02-29 06:50 pm SW 5.1 8.0----30.35- 35.2-----
2024-02-29 06:40 pm SW 6.0 9.9----30.35- 35.6-----
2024-02-29 06:00 pm SW 8.9 12.0----30.35-0.02 37.0-----
2024-02-29 05:50 pm SW 8.9 12.0----30.35- 37.0-----
2024-02-29 05:40 pmWSW 9.9 15.0----30.35- 37.0-----
2024-02-29 05:30 pmWSW 8.0 12.0----30.35- 37.0-----
2024-02-29 05:20 pmWSW 11.1 13.0----30.36- 37.4-----
2024-02-29 05:10 pm SW 9.9 12.0----30.36- 37.4-----
2024-02-29 05:00 pm W 9.9 14.0----30.36-0.01 36.7-----
2024-02-29 04:50 pm W 12.0 17.1----30.36- 36.9-----
2024-02-29 04:40 pm W 7.0 13.0----30.36- 36.5-----
2024-02-29 04:30 pm W 8.9 14.0----30.36- 36.1-----
2024-02-29 04:20 pmWNW 7.0 14.0----30.36- 36.0-----
2024-02-29 04:10 pmWSW 14.0 15.9----30.35- 36.0-----
2024-02-29 04:00 pm W 8.9 14.0----30.36-0.03 35.8-----
2024-02-29 03:50 pm W 7.0 15.0----30.36- 35.6-----
2024-02-29 03:40 pmWSW 13.0 17.1----30.36- 35.2-----
2024-02-29 03:30 pm W 7.0 13.0----30.36- 35.1-----
2024-02-29 03:20 pm W 14.0 18.1----30.36- 34.5-----
2024-02-29 03:10 pm W 13.0 18.1----30.36- 34.3-----
2024-02-29 03:00 pm W 8.0 15.9----30.37-0.03 34.0-----
2024-02-29 02:50 pm W 8.0 17.1----30.36- 33.8-----
2024-02-29 02:40 pm W 12.0 15.0----30.37- 33.8-----
2024-02-29 02:30 pmWSW 12.0 15.9----30.37- 33.4-----
2024-02-29 02:20 pm W 8.9 17.1----30.37- 33.1-----
2024-02-29 02:10 pmWSW 12.0 15.9----30.37- 33.3-----
2024-02-29 02:00 pm W 12.0 15.0----30.37-0.03 32.7-----
2024-02-29 01:50 pm W 9.9 15.9----30.37- 32.0-----
2024-02-29 01:40 pmWNW 12.0 14.0----30.37- 32.0-----
2024-02-29 01:30 pm W 8.9 15.9----30.38- 31.6-----
2024-02-29 01:20 pm W 9.9 15.0----30.38- 31.5-----
2024-02-29 01:10 pmWNW 11.1 17.1----30.39- 30.7-----
2024-02-29 01:00 pm W 9.9 15.9----30.39+0.00 30.2-----
2024-02-29 12:50 pm W 9.9 14.0----30.39- 30.4-----
2024-02-29 12:40 pmWSW 9.9 14.0----30.40- 30.6-----
2024-02-29 12:30 pm W 6.0 15.9----30.40- 29.7-----
2024-02-29 12:20 pm W 5.1 13.0----30.40- 29.3-----
2024-02-29 12:10 pm W 8.9 14.0----30.40- 29.7-----
2024-02-29 12:00 pmWSW 9.9 14.0----30.40+0.03 29.1-----
2024-02-29 11:50 am W 8.0 14.0----30.41- 28.6-----
2024-02-29 11:40 am W 8.9 12.0----30.40- 28.0-----
2024-02-29 11:30 amWNW 6.0 9.9----30.40- 28.8-----
2024-02-29 11:20 am W 8.9 12.0----30.40- 27.7-----
2024-02-29 11:10 amWSW 6.0 9.9----30.40- 27.5-----
2024-02-29 11:00 amWNW 7.0 11.1----30.40+0.06 27.0-----
2024-02-29 10:50 am NW 8.0 12.0----30.40- 27.3-----
2024-02-29 10:40 am W 5.1 14.0----30.40- 26.8-----
2024-02-29 10:30 amWNW 7.0 13.0----30.40- 27.1-----
2024-02-29 10:20 amWNW 7.0 15.0----30.40- 27.0-----
2024-02-29 10:10 am W 5.1 12.0----30.39- 26.6-----
2024-02-29 10:00 am W 6.0 15.0----30.39+0.08 26.8-----
2024-02-29 09:50 am W 8.9 13.0----30.38- 27.0-----
2024-02-29 09:40 am W 9.9 14.0----30.38- 26.6-----
2024-02-29 09:30 am W 11.1 15.0----30.38- 26.1-----
2024-02-29 09:20 am W 12.0 15.0----30.37- 25.7-----
2024-02-29 09:10 am W 9.9 15.0----30.38- 25.5-----
2024-02-29 09:00 am W 11.1 15.0----30.37+0.09 25.9-----
2024-02-29 08:50 amWSW 9.9 12.0----30.36- 25.7-----
2024-02-29 08:40 amWSW 8.9 13.0----30.35- 24.4-----
2024-02-29 08:30 amWSW 8.0 13.0----30.35- 24.4-----
2024-02-29 08:20 amWSW 8.9 13.0----30.35- 24.3-----
2024-02-29 08:10 amWSW 8.0 12.0----30.34- 24.1-----
2024-02-29 08:00 amWSW 8.9 11.1----30.34+0.09 24.1-----
2024-02-29 07:50 amWSW 8.9 11.1----30.33- 23.7-----
2024-02-29 07:40 amWSW 8.0 11.1----30.33- 23.7-----
2024-02-29 07:30 amWSW 9.9 13.0----30.32- 23.7-----
2024-02-29 07:20 am W 8.0 13.0----30.32- 23.7-----
2024-02-29 07:10 amWSW 8.0 12.0----30.31- 23.7-----
2024-02-29 07:00 am W 9.9 13.0----30.31+0.08 23.9-----
2024-02-29 06:50 am W 8.9 14.0----30.30- 23.7-----
2024-02-29 06:40 amWSW 9.9 15.0----30.30- 23.9-----
2024-02-29 06:30 am W 11.1 15.9----30.30- 23.9-----
2024-02-29 06:20 amWSW 11.1 13.0----30.29- 23.7-----
2024-02-29 06:10 amWSW 9.9 14.0----30.29- 23.9-----
2024-02-29 06:00 amWSW 9.9 13.0----30.28+0.06 23.5-----
2024-02-29 05:50 amWSW 8.9 11.1----30.28- 23.7-----
2024-02-29 05:40 amWSW 8.9 12.0----30.27- 23.9-----
2024-02-29 05:30 amWSW 8.9 12.0----30.27- 23.9-----
2024-02-29 05:20 amWSW 8.9 13.0----30.26- 24.1-----
2024-02-29 05:10 amWSW 9.9 13.0----30.26- 24.3-----
2024-02-29 05:00 amWSW 8.9 12.0----30.25+0.03 24.3-----
2024-02-29 04:50 am W 8.9 12.0----30.25- 24.4-----
2024-02-29 04:40 am W 11.1 13.0----30.24- 24.4-----
2024-02-29 04:30 am W 9.9 13.0----30.24- 24.4-----
2024-02-29 04:20 am W 8.9 13.0----30.24- 24.1-----
2024-02-29 04:10 am W 8.9 13.0----30.23- 24.1-----
2024-02-29 04:00 amWSW 9.9 14.0----30.23+0.03 23.9-----
2024-02-29 03:50 amWSW 8.9 12.0----30.23- 23.5-----
2024-02-29 03:40 amWSW 8.9 11.1----30.23- 23.0-----
2024-02-29 03:30 amWSW 8.9 12.0----30.23- 23.0-----
2024-02-29 03:20 amWSW 9.9 13.0----30.22- 23.2-----
2024-02-29 03:10 amWSW 8.9 12.0----30.22- 23.4-----
2024-02-29 03:00 am SW 8.9 11.1----30.22+0.04 23.5-----
2024-02-29 02:50 am SW 9.9 12.0----30.21- 23.5-----
2024-02-29 02:40 amWSW 9.9 13.0----30.21- 23.7-----
2024-02-29 02:30 am SW 9.9 12.0----30.22- 23.7-----
2024-02-29 02:20 am SW 9.9 12.0----30.21- 23.5-----
2024-02-29 02:10 am SW 8.0 12.0----30.22- 23.5-----
2024-02-29 02:00 am SW 8.9 12.0----30.22+0.05 23.2-----
2024-02-29 01:50 am SW 8.0 11.1----30.21- 23.0-----
2024-02-29 01:40 am SW 8.9 11.1----30.21- 23.0-----
2024-02-29 01:30 am SW 8.0 9.9----30.21- 23.0-----
2024-02-29 01:20 am SW 7.0 8.9----30.21- 23.0-----
2024-02-29 01:10 am SW 7.0 9.9----30.20- 23.4-----
2024-02-29 01:00 amWSW 7.0 12.0----30.20+0.04 23.5-----
2024-02-29 12:50 am SW 8.0 9.9----30.19- 23.4-----